Regional Weather Roundup
Issued by NWS

Home | Current Version | Previous Version | Graphics & Text | Print | Product List | Glossary On
Versions: 1 2 3 4 5 6 7 8 9 10 11 12 13 14 15 16 17 18 19 20 21 22 23 24 25 26 27 28 29 30 31 32 33 34 35 36 37 38 39 40 41 42 43 44 45 46 47 48 49 50
000
ASUS43 KDMX 110806
RWRIA

WEATHER ROUNDUP FOR IOWA
NATIONAL WEATHER SERVICE DES MOINES IA
200 AM CST SUN DEC 11 2016

NOTE: "FAIR" INDICATES FEW OR NO CLOUDS BELOW 12,000 FEET WITH NO
SIGNIFICANT WEATHER AND/OR OBSTRUCTIONS TO VISIBILITY.

* - THESE STATIONS ARE NOT NWS STATIONS...THUS NOT UNDER NWS
QUALITY CONTROL.  THEY ALSO DO NOT REPORT WEATHER SUCH
AS PRECIPITATION OR FOG.

IAZ001>003-012>014-020>022-031>034-043>046-110900-
   NORTHWEST IOWA

CITY           SKY/WX    TMP DP  RH WIND       PRES   REMARKS
CARROLL *      CLOUDY    25  23  93 E15       29.87F WCI  12
CHEROKEE *     CLOUDY    23  21  93 SE8       29.87F WCI  14
DENISON *      CLOUDY    27  21  80 E8        29.84S WCI  18
LE MARS *      CLOUDY    25  21  86 E12G17    29.84F WCI  14
ORANGE CITY *  CLOUDY    21  21 100 SE10G18   29.82F WCI  10
SHELDON *      CLOUDY    21  21 100 SE17G23   29.83F WCI   7
SIOUX CITY     CLOUDY    28  21  75 E16       29.82F WCI  16
SPENCER        CLOUDY    21  19  92 SE8       29.89F WCI  11
STORM LAKE *   CLOUDY    21  19  93 SE17      29.87S WCI   7
$$

IAZ055>058-069>071-079>083-090>094-110900-
   SOUTHWEST IOWA

CITY           SKY/WX    TMP DP  RH WIND       PRES   REMARKS
ATLANTIC *     CLOUDY    30  21  69 SE8       29.84F WCI  23
AUDUBON *      CLOUDY    27  21  80 E8        29.85F WCI  18
CLARINDA *     CLOUDY    34  21  60 S7        29.87F WCI  28
COUNCIL BLFS * CLOUDY    30  21  69 SE13      29.80F WCI  20
CRESTON *      CLOUDY    30  21  69 SE10      29.88F WCI  21
HARLAN  *      CLOUDY    30  21  69 SE8       29.87F WCI  23
LAMONI         CLOUDY    33  19  56 SE12      29.89F WCI  24
RED OAK *      CLOUDY    34  21  60 SE6G13    29.83F WCI  29
SHENANDOAH *   CLOUDY    32  21  64 SE10      29.83F WCI  24
$$

IAZ047>049-059>061-072>074-084-110900-
   CENTRAL IOWA

CITY           SKY/WX    TMP DP  RH WIND       PRES   REMARKS
AMES           CLOUDY    25  22  88 E9        29.95F WCI  15
ANKENY *       CLOUDY    27  21  80 E7G14     29.95F WCI  19
BOONE *        CLOUDY    25  21  86 E15       29.92F WCI  12
CHARITON *     CLOUDY    30  21  69 SE10      29.92F WCI  21
DES MOINES     CLOUDY    29  21  72 E9        29.93F WCI  20
GRINNELL*      CLOUDY    25  22  85 E13       29.97F WCI  14
KNOXVILLE *    CLOUDY    30  19  64 SE8       29.93F WCI  23
MARSHALLTOWN   CLOUDY    23  21  92 E14       29.98F WCI  11
NEWTON *       CLOUDY    25  21  86 E13       29.95F WCI  13
PELLA *        CLOUDY    28  22  79 E6        29.97F WCI  21
PERRY *        CLOUDY    26  24  91 E12       29.92F WCI  15
$$

IAZ004>006-015-016-023>025-035-036-110900-
   NORTH CENTRAL IOWA

CITY           SKY/WX    TMP DP  RH WIND       PRES   REMARKS
ALGONA *       CLOUDY    21  19  93 SE14      29.92F FOG     WCI   8
CLARION *      CLOUDY    23  21  93 SE20      29.94F FOG     WCI   8
ESTHERVILLE    CLOUDY    20  18  92 SE15      29.91S WCI   6
FORT DODGE *   CLOUDY    23  18  80 SE14G20   29.92F WCI  11
MASON CITY     LGT SNOW  20  17  88 SE15      29.98F FOG     WCI   6
FOREST CITY *  LGT SNOW  21  19  93 SE14G21   29.95F WCI   8
WEBSTER CITY * CLOUDY    23  23 100 SE17      29.91F WCI   9
IOWA FALLS *   CLOUDY    23  21  91 E16       29.97F WCI  10
$$

IAZ007>011-017>019-026>030-037>042-050>054-066-110900-
   NORTHEAST IOWA

CITY           SKY/WX    TMP DP  RH WIND       PRES   REMARKS
CEDAR RAPIDS   CLOUDY    23  23 100 E12       30.03F WCI  12
CHARLES CITY * LGT SNOW  21  19  93 SE15      30.01F WCI   8
CLINTON *      CLOUDY    25  23  92 SE16      30.10F WCI  12
DECORAH *      LGT SNOW  19  18  93 SE12G18   30.03F WCI   7
DUBUQUE        LGT SNOW  22  20  92 SE12      30.08F FOG     WCI  10
MONTICELLO *   LGT SNOW  23  21  93 SE14      30.06F WCI  11
OELWEIN *      LGT SNOW  21  21 100 SE15      30.03F WCI   8
WATERLOO       LGT SNOW  22  19  89 SE13      30.02F FOG     WCI  10
$$

IAZ064-065-067-068-078-110900-
   EAST CENTRAL IOWA

CITY           SKY/WX    TMP DP  RH WIND       PRES   REMARKS
DAVENPORT      CLOUDY    25  21  85 E13       30.08F WCI  14
IOWA CITY      CLOUDY    27  22  81 E7        30.06F WCI  19
MUSCATINE *    CLOUDY    28  23  80 SE8       30.07F WCI  20
QUAD CITIES    CLOUDY    27  21  78 E8        30.08F WCI  19
$$

IAZ062-063-075>077-085>089-095>099-110900-
   SOUTHEAST IOWA

CITY           SKY/WX    TMP DP  RH WIND       PRES   REMARKS
BURLINGTON     CLOUDY    31  22  69 S10       30.03F WCI  22
FAIRFIELD *    CLOUDY    30  19  64 SE10G17   29.99F WCI  21
FORT MADISON * CLOUDY    30  21  69 S9        30.04F WCI  22
KEOKUK *       CLOUDY    34  18  51 SE10      30.02F WCI  26
OSKALOOSA *    CLOUDY    28  23  82 E8        29.98F WCI  20
CENTERVILLE *  CLOUDY    32  18  55 SE12      29.96F WCI  23
OTTUMWA        CLOUDY    31  19  61 SE10      29.97F WCI  22
WASHINGTON *   CLOUDY    28  25  86 SE8       30.03F WCI  20
$$

ABBREVIATIONS USED IN REMARKS
   TC - TEMPERATURES IN CELSIUS
  WCI - WIND CHILL INDEX
   HX - HEAT INDEX
  VSB - VISIBILITY
$$




USA.gov is the U.S. government's official web portal to all federal, state and local government web resources and services.